カタログに戻る

STARLINK-34209

運用中通信SSO
NORAD 64150·PAYLOAD·🇺🇸 United States

打ち上げ May 27, 2025 から Vandenberg Space Force Base

Loading…

次のパス (今後24時間)

TLE

最新Source: CelesTrak SupGP

元期: Sep 15, 2026, 03:12 UTC

1 64150C 25112E   26258.13381944  .00017384  00000+0  53977-3 0  2587
2 64150  97.2840 305.2599 0001079  84.9868 310.8520 15.33423140    17

AllMySatでSTARLINK-34209をリアルタイム追跡

Download on the App Store